When you browse on this site, cookies collect data to enhance your experience and personalize the content and advertising you see.
Visit our Privacy Policy to learn more. By continuing to use the site, you agree to this use of cookies and data.
  • In Lithuania
  • List of Countries
  • For 7 days
  • Water Temperature
  • Weather Map
  • Weather Widgets
  • user-avatar
    Login

    Hourly Weather Batina

    Today, 6 April, Monday

    Time Temperature Precipitation Wind Pressure Humidity
    00:00 +10°C° 0 mm 1 mps 671 mmHg 66%
    01:00 +10°C° 0 mm 1 mps 671 mmHg 65%
    02:00 +10°C° 0 mm 1 mps 670 mmHg 65%
    03:00 +10°C° 0 mm 1 mps 670 mmHg 65%
    04:00 +10°C° 0 mm 1 mps 670 mmHg 65%
    05:00 +10°C° 0 mm 1 mps 671 mmHg 65%
    06:00 +11°C° 0 mm 1 mps 671 mmHg 66%
    07:00 +13°C° 0 mm 1 mps 672 mmHg 58%
    08:00 +14°C° 0 mm 2 mps 673 mmHg 51%
    09:00 +16°C° 0 mm 3 mps 674 mmHg 44%
    10:00 +17°C° 0 mm 3 mps 674 mmHg 42%
    11:00 +18°C° 0 mm 3 mps 674 mmHg 40%
    12:00 +18°C° 0 mm 4 mps 674 mmHg 38%
    13:00 +18°C° 0 mm 4 mps 674 mmHg 39%
    14:00 +18°C° 0 mm 4 mps 674 mmHg 39%
    15:00 +18°C° 0 mm 4 mps 674 mmHg 39%
    16:00 +17°C° 0.1 mm 4 mps 673 mmHg 48%
    17:00 +15°C° 0.1 mm 4 mps 673 mmHg 56%
    18:00 +13°C° 0.1 mm 4 mps 673 mmHg 65%
    19:00 +13°C° 0 mm 3 mps 674 mmHg 70%
    20:00 +12°C° 0 mm 3 mps 674 mmHg 75%
    21:00 +11°C° 0 mm 3 mps 675 mmHg 80%
    22:00 +10°C° 0 mm 2 mps 674 mmHg 81%
    23:00 +11°C° 0 mm 1 mps 674 mmHg 81%

    Tomorrow, 7 April, Tuesday

    Time Temperature Precipitation Wind Pressure Humidity
    00:00 +11°C° 0 mm 1 mps 674 mmHg 81%
    01:00 +10°C° 0 mm 1 mps 674 mmHg 81%
    02:00 +10°C° 0 mm 1 mps 673 mmHg 81%
    03:00 +10°C° 0 mm 1 mps 673 mmHg 80%
    04:00 +10°C° 0 mm 1 mps 673 mmHg 80%
    05:00 +11°C° 0 mm 1 mps 674 mmHg 79%
    06:00 +11°C° 0 mm 1 mps 674 mmHg 79%
    07:00 +12°C° 0 mm 1 mps 675 mmHg 72%
    08:00 +14°C° 0 mm 2 mps 675 mmHg 66%
    09:00 +15°C° 0 mm 2 mps 676 mmHg 60%
    10:00 +16°C° 0 mm 3 mps 676 mmHg 56%
    11:00 +17°C° 0 mm 3 mps 676 mmHg 52%
    12:00 +17°C° 0 mm 4 mps 676 mmHg 49%
    13:00 +17°C° 0 mm 4 mps 675 mmHg 48%
    14:00 +17°C° 0 mm 4 mps 675 mmHg 48%
    15:00 +17°C° 0 mm 4 mps 675 mmHg 48%
    16:00 +16°C° 0.1 mm 3 mps 674 mmHg 52%
    17:00 +14°C° 0.1 mm 3 mps 674 mmHg 56%
    18:00 +15°C° 0.1 mm 2 mps 674 mmHg 60%
    19:00 +14°C° 0.2 mm 1 mps 674 mmHg 64%
    20:00 +13°C° 0.2 mm 1 mps 674 mmHg 68%
    21:00 +13°C° 0.2 mm 1 mps 675 mmHg 72%
    22:00 +12°C° 0 mm 1 mps 674 mmHg 72%
    23:00 +12°C° 0 mm 1 mps 674 mmHg 73%

    Day after tomorrow, 8 April, Wednesday

    Time Temperature Precipitation Wind Pressure Humidity
    00:00 +11°C° 0 mm 1 mps 674 mmHg 73%
    01:00 +11°C° 0 mm 1 mps 674 mmHg 73%
    02:00 +10°C° 0 mm 1 mps 674 mmHg 73%
    03:00 +9°C° 0 mm 2 mps 673 mmHg 73%
    04:00 +9°C° 0 mm 2 mps 673 mmHg 73%
    05:00 +10°C° 0 mm 2 mps 674 mmHg 72%
    06:00 +10°C° 0 mm 2 mps 674 mmHg 71%
    07:00 +12°C° 0 mm 2 mps 674 mmHg 66%
    08:00 +13°C° 0 mm 2 mps 675 mmHg 60%
    09:00 +14°C° 0 mm 3 mps 675 mmHg 55%
    10:00 +14°C° 0.2 mm 3 mps 675 mmHg 54%
    11:00 +16°C° 0.2 mm 3 mps 675 mmHg 53%
    12:00 +17°C° 0.2 mm 4 mps 675 mmHg 51%
    13:00 +17°C° 0.4 mm 4 mps 675 mmHg 52%
    14:00 +17°C° 0.4 mm 4 mps 674 mmHg 53%
    15:00 +17°C° 0.4 mm 4 mps 674 mmHg 54%
    16:00 +16°C° 0.5 mm 3 mps 674 mmHg 59%
    17:00 +14°C° 0.5 mm 3 mps 673 mmHg 63%
    18:00 +14°C° 0.5 mm 2 mps 673 mmHg 68%
    19:00 +14°C° 0.3 mm 1 mps 673 mmHg 71%
    20:00 +13°C° 0.3 mm 1 mps 674 mmHg 75%
    21:00 +13°C° 0.3 mm 1 mps 674 mmHg 79%
    22:00 +11°C° 0.1 mm 0 mps 673 mmHg 81%
    23:00 +11°C° 0.1 mm 0 mps 673 mmHg 84%

    9 April, Thursday

    Time Temperature Precipitation Wind Pressure Humidity
    00:00 +10°C° 0.1 mm 0 mps 673 mmHg 87%
    01:00 +11°C° 0 mm 1 mps 673 mmHg 87%
    02:00 +10°C° 0 mm 1 mps 673 mmHg 87%
    03:00 +10°C° 0 mm 1 mps 672 mmHg 87%
    04:00 +10°C° 0 mm 1 mps 672 mmHg 85%
    05:00 +11°C° 0 mm 1 mps 673 mmHg 83%
    06:00 +11°C° 0 mm 1 mps 673 mmHg 81%
    07:00 +12°C° 0 mm 2 mps 673 mmHg 75%
    08:00 +14°C° 0 mm 2 mps 674 mmHg 70%
    09:00 +15°C° 0 mm 2 mps 674 mmHg 64%
    10:00 +16°C° 0.1 mm 3 mps 674 mmHg 60%
    11:00 +17°C° 0.1 mm 3 mps 674 mmHg 55%
    12:00 +18°C° 0.1 mm 4 mps 674 mmHg 51%
    13:00 +18°C° 0.1 mm 4 mps 674 mmHg 50%
    14:00 +18°C° 0.1 mm 4 mps 673 mmHg 49%
    15:00 +18°C° 0.1 mm 4 mps 673 mmHg 48%
    16:00 +17°C° 0.1 mm 3 mps 673 mmHg 54%
    17:00 +16°C° 0.1 mm 2 mps 672 mmHg 59%
    18:00 +15°C° 0.1 mm 2 mps 672 mmHg 65%
    19:00 +14°C° 0 mm 1 mps 672 mmHg 68%
    20:00 +14°C° 0 mm 1 mps 672 mmHg 72%
    21:00 +13°C° 0 mm 1 mps 672 mmHg 76%
    22:00 +12°C° 0 mm 1 mps 672 mmHg 76%
    23:00 +12°C° 0 mm 1 mps 672 mmHg 76%

    10 April, Friday

    Time Temperature Precipitation Wind Pressure Humidity
    00:00 +12°C° 0 mm 1 mps 672 mmHg 76%
    01:00 +12°C° 0 mm 1 mps 672 mmHg 76%
    02:00 +11°C° 0 mm 1 mps 672 mmHg 75%
    03:00 +11°C° 0 mm 1 mps 671 mmHg 75%
    04:00 +12°C° 0 mm 1 mps 672 mmHg 75%
    05:00 +12°C° 0 mm 1 mps 672 mmHg 74%
    06:00 +12°C° 0 mm 1 mps 672 mmHg 74%
    07:00 +14°C° 0 mm 2 mps 673 mmHg 66%
    08:00 +14°C° 0 mm 3 mps 673 mmHg 58%
    09:00 +17°C° 0 mm 3 mps 674 mmHg 51%
    10:00 +17°C° 0 mm 4 mps 674 mmHg 49%
    11:00 +18°C° 0 mm 4 mps 674 mmHg 48%
    12:00 +19°C° 0 mm 4 mps 674 mmHg 46%
    13:00 +19°C° 0 mm 4 mps 673 mmHg 46%
    14:00 +19°C° 0 mm 4 mps 673 mmHg 46%
    15:00 +19°C° 0 mm 5 mps 673 mmHg 46%
    16:00 +18°C° 0 mm 4 mps 673 mmHg 50%
    17:00 +17°C° 0 mm 4 mps 672 mmHg 54%
    18:00 +16°C° 0 mm 3 mps 672 mmHg 58%
    19:00 +14°C° 0.1 mm 3 mps 672 mmHg 62%
    20:00 +15°C° 0.1 mm 2 mps 672 mmHg 66%
    21:00 +14°C° 0.1 mm 2 mps 673 mmHg 71%
    22:00 +14°C° 0.1 mm 1 mps 673 mmHg 70%
    23:00 +14°C° 0.1 mm 1 mps 672 mmHg 70%

    11 April, Saturday

    Time Temperature Precipitation Wind Pressure Humidity
    00:00 +14°C° 0.1 mm 1 mps 672 mmHg 70%
    01:00 +14°C° 0 mm 1 mps 672 mmHg 72%
    02:00 +13°C° 0 mm 1 mps 672 mmHg 74%
    03:00 +12°C° 0 mm 1 mps 672 mmHg 76%
    04:00 +13°C° 0 mm 1 mps 672 mmHg 75%
    05:00 +13°C° 0 mm 2 mps 673 mmHg 73%
    06:00 +13°C° 0 mm 2 mps 673 mmHg 71%
    07:00 +14°C° 0 mm 3 mps 673 mmHg 65%
    08:00 +16°C° 0 mm 3 mps 674 mmHg 59%
    09:00 +17°C° 0 mm 4 mps 674 mmHg 52%
    10:00 +18°C° 0 mm 4 mps 674 mmHg 51%
    11:00 +19°C° 0 mm 4 mps 674 mmHg 50%
    12:00 +20°C° 0 mm 5 mps 674 mmHg 48%
    13:00 +19°C° 0.1 mm 5 mps 674 mmHg 49%
    14:00 +19°C° 0.1 mm 6 mps 674 mmHg 50%
    15:00 +19°C° 0.1 mm 6 mps 673 mmHg 51%
    16:00 +17°C° 0 mm 5 mps 673 mmHg 54%
    17:00 +17°C° 0 mm 4 mps 673 mmHg 57%
    18:00 +16°C° 0 mm 3 mps 673 mmHg 59%
    19:00 +15°C° 0 mm 2 mps 673 mmHg 63%
    20:00 +15°C° 0 mm 1 mps 673 mmHg 66%
    21:00 +14°C° 0 mm 1 mps 673 mmHg 69%
    22:00 +14°C° 0.1 mm 1 mps 673 mmHg 71%
    23:00 +14°C° 0.1 mm 1 mps 673 mmHg 73%
    Show more